Regional Weather Roundup
Issued by NWS

Home | Current Version | Previous Version | Text Only | Print | Product List | Glossary On
Versions: 1 2 3 4 5 6 7 8 9 10 11 12 13 14 15 16 17 18 19 20 21 22 23 24 25 26 27 28 29 30 31 32 33 34 35 36 37 38 39 40 41 42 43 44 45 46 47 48 49 50
000
ASUS43 KOAX 270610
RWRNE

WEATHER ROUNDUP FOR NEBRASKA
NATIONAL WEATHER SERVICE OMAHA NE
100 AM CDT WED MAY 27 2015

NOTES: SATELLITE DATA IS BEING USED TO AUGMENT CLOUD COVER ABOVE
       12000 FEET.
       "FAIR" INDICATES FEW OR NO CLOUDS BELOW 12,000 FEET WITH NO
       SIGNIFICANT WEATHER AND/OR OBSTRUCTIONS TO VISIBILITY.

  * THESE STATIONS DO NOT REPORT WEATHER SUCH AS RAIN...SNOW OR FOG.

NEZ001>004-019>022-054>056-270700-
NEBRASKA PANHANDLE

CITY           SKY/WX    TMP DP  RH WIND       PRES   REMARKS
SCOTTSBLUFF    CLOUDY    56  51  84 SE5       30.04R
6HR MIN TEMP:  56; 6HR MAX TEMP:  69;

ALLIANCE       MOCLDY    52  49  89 S9        30.03R
6HR MIN TEMP:  52; 6HR MAX TEMP:  64;

CHADRON        CLOUDY    59  49  69 CALM      30.00S
6HR MIN TEMP:  56; 6HR MAX TEMP:  70;

KIMBALL          N/A    N/A N/A N/A MISG        N/A
SIDNEY         CLEAR     51  48  89 S8        30.07R
6HR MIN TEMP:  50; 6HR MAX TEMP:  66;

$$

NEZ057>060-069>072-079>082-270700-
SOUTHWEST NEBRASKA

CITY           SKY/WX    TMP DP  RH WIND       PRES   REMARKS
NORTH PLATTE   PTCLDY    52  46  80 SE5       30.05R
6HR MIN TEMP:  50; 6HR MAX TEMP:  70;

IMPERIAL       CLEAR     53  48  83 SE7       30.05R
6HR MIN TEMP:  52; 6HR MAX TEMP:  70;

LEXINGTON      CLEAR     50  48  92 CALM      30.03S
MCCOOK         CLEAR     56  48  74 CALM      30.04R
6HR MIN TEMP:  54; 6HR MAX TEMP:  72;

OGALLALA       MOCLDY    58  48  69 SE6       30.04S
$$

NEZ005>010-023>029-035>040-094-270700-
NORTH CENTRAL NEBRASKA

CITY           SKY/WX    TMP DP  RH WIND       PRES   REMARKS
VALENTINE      CLEAR     51  47  86 W3        30.01S
6HR MIN TEMP:  51; 6HR MAX TEMP:  73;

AINSWORTH      CLEAR     55  50  83 W6        30.01S
BROKEN BOW     CLEAR     54  48  80 CALM      30.01S
6HR MIN TEMP:  54; 6HR MAX TEMP:  70;

O`NEILL        CLEAR     56  51  84 W3        29.98S
ORD            CLEAR     55  48  77 CALM      29.98S
6HR MIN TEMP:  54; 6HR MAX TEMP:  68;

THEDFORD       PTCLDY    52  47  82 SW3       30.03F
$$

NEZ041-046>049-061>064-073>077-083>087-270700-
SOUTH CENTRAL NEBRASKA

CITY           SKY/WX    TMP DP  RH WIND       PRES   REMARKS
GRAND ISLAND   CLEAR     54  47  77 W8        30.00S
6HR MIN TEMP:  53; 6HR MAX TEMP:  70;

AURORA         CLEAR     53  49  89 W7        29.99S
HASTINGS       CLEAR     56  48  74 SW3       30.01R
6HR MIN TEMP:  55; 6HR MAX TEMP:  69;

HEBRON         CLEAR     53  49  85 CALM      30.00S
HOLDREGE       CLEAR     53  48  82 SW3       30.03R
KEARNEY *      CLEAR     57  48  72 W3        30.02S
YORK           CLEAR     55  50  82 W8        29.99S
$$

NEZ011>018-030>034-042>045-270700-
NORTHEAST NEBRASKA

CITY           SKY/WX    TMP DP  RH WIND       PRES   REMARKS
NORFOLK        CLEAR     57  52  83 W8        29.95R
6HR MIN TEMP:  55; 6HR MAX TEMP:  71;

ALBION         CLEAR     55  49  79 NW6       29.98S
BLAIR          CLEAR     56  53  88 CALM      29.94R
COLUMBUS *       N/A    N/A N/A N/A MISG        N/A
FREMONT        CLEAR     56  54  92 CALM      29.95R
TEKAMAH        PTCLDY    55  53  93 W5        29.93R
6HR MIN TEMP:  55; 6HR MAX TEMP:  71;

WAYNE          CLEAR     51  49  93 CALM      29.95R
$$

NEZ050>053-065>068-078-088>093-270700-
SOUTHEAST NEBRASKA

CITY           SKY/WX    TMP DP  RH WIND       PRES   REMARKS
LINCOLN        CLEAR     60  52  74 NW3       29.97R
6HR MIN TEMP:  59; 6HR MAX TEMP:  71;

OMAHA EPPLEY   CLEAR     58  54  86 CALM      29.94R
6HR MIN TEMP:  57; 6HR MAX TEMP:  69;

BEATRICE       CLEAR     56  52  85 W6        29.98R
FALLS CITY     CLEAR     61  55  81 W9        29.94F
6HR MIN TEMP:  61; 6HR MAX TEMP:  73;

NEBRASKA CITY  CLEAR     58  56  92 SW8       29.95S
PLATTSMOUTH    CLEAR     59  53  81 W3        29.94S
$$

NEZ044-045-051>053-067-270700-
OMAHA AREA

CITY           SKY/WX    TMP DP  RH WIND       PRES   REMARKS
OMAHA EPPLEY   CLEAR     58  54  86 CALM      29.94R
6HR MIN TEMP:  57; 6HR MAX TEMP:  69;

BLAIR          CLEAR     56  53  88 CALM      29.94R
FREMONT        CLEAR     56  54  92 CALM      29.95R
MILLARD        CLEAR     56  55  94 CALM      29.94R
OFFUTT AFB     CLEAR     56  54  91 S1        29.93R
PLATTSMOUTH    CLEAR     59  53  81 W3        29.94S
WAHOO          FAIR      60  54  79 CALM      29.95R
$$


USA.gov is the U.S. government's official web portal to all federal, state and local government web resources and services.